Date,TemperatureHighF,TemperatureAvgF,TemperatureLowF,DewpointHighF,DewpointAvgF,DewpointLowF,HumidityHigh,HumidityAvg,HumidityLow,PressureMaxIn,PressureMinIn,WindSpeedMaxMPH,WindSpeedAvgMPH,GustSpeedMaxMPH,PrecipitationSumIn
2013-1-1,27,26,25,26,25,24,98,98,97,30.24,30.06,6,3,6,0.00
2013-1-2,33,29,27,33,29,26,98,98,98,30.42,30.06,6,2,6,0.00
2013-1-3,40,33,23,37,31,22,98,92,83,30.53,30.33,13,3,13,0.00
2013-1-4,50,45,40,42,38,36,88,77,64,30.33,30.06,24,9,24,0.00
2013-1-5,51,45,37,44,35,22,92,70,52,30.15,29.94,22,9,22,0.01
2013-1-6,37,35,32,31,24,20,86,64,53,30.21,29.94,13,4,13,0.03
2013-1-7,36,31,23,30,23,13,86,72,58,30.42,30.00,10,2,10,0.01
2013-1-8,29,23,14,23,15,7,84,73,60,30.42,30.21,9,2,9,0.00
2013-1-9,29,27,24,26,24,21,91,87,84,30.24,30.12,8,4,8,0.00
2013-1-10,31,27,23,31,26,21,98,94,91,30.12,29.80,9,2,9,0.00
2013-1-11,37,32,28,36,29,21,98,88,71,29.97,29.74,16,4,16,0.00
2013-1-12,33,29,26,24,21,18,85,72,59,30.12,29.94,14,5,14,0.00
2013-1-13,31,28,25,25,23,22,87,83,78,30.15,30.06,14,5,14,0.00
2013-1-14,34,31,26,32,27,21,95,87,76,30.09,29.88,20,7,20,0.09
2013-1-15,38,34,32,36,34,31,98,96,93,29.94,29.71,8,3,8,0.01
2013-1-16,39,35,32,37,34,29,98,96,88,29.71,29.53,9,4,9,0.00
2013-1-17,35,34,34,34,33,31,98,93,88,29.71,29.53,13,4,13,0.16
2013-1-18,34,33,30,32,31,29,97,92,83,29.68,29.47,12,5,12,0.24
2013-1-19,31,28,26,29,24,21,95,86,78,29.62,29.47,10,4,10,0.24
2013-1-20,34,32,29,34,30,25,98,94,86,29.62,29.47,8,5,8,0.00
2013-1-21,41,37,34,40,37,34,98,98,98,29.50,29.38,9,3,9,0.06
2013-1-22,38,33,29,38,31,26,98,92,84,29.68,29.41,13,6,13,0.02
2013-1-23,34,31,28,31,27,24,94,87,83,29.85,29.65,14,5,14,0.02
2013-1-24,35,32,30,33,30,25,98,92,82,29.80,29.68,15,7,15,0.01
2013-1-25,32,30,27,25,21,16,82,69,61,29.94,29.68,14,6,14,0.00
2013-1-26,33,28,25,20,17,15,71,62,55,30.03,29.88,9,4,9,0.00
2013-1-27,30,25,18,24,18,12,81,74,67,30.00,29.88,9,3,9,0.00
2013-1-28,33,31,29,29,27,24,88,85,81,30.12,29.85,9,2,9,0.00
2013-1-29,36,30,20,33,27,16,94,88,85,30.15,29.77,10,3,10,0.02
2013-1-30,44,38,35,42,36,32,98,91,86,30.00,29.80,9,3,9,0.06
2013-1-31,52,45,39,43,34,28,94,66,47,30.00,29.77,26,10,26,0.10
2013-2-1,51,44,38,36,31,25,67,60,49,29.88,29.50,26,7,26,0.00
2013-2-2,45,43,39,43,37,30,92,80,61,29.53,29.26,14,6,14,0.44
2013-2-3,39,35,32,34,29,17,87,79,49,29.94,29.44,20,8,20,0.08
2013-2-4,38,34,28,32,25,17,88,71,52,29.97,29.80,12,4,12,0.04
2013-2-5,43,38,32,35,32,29,96,81,63,29.94,29.53,10,3,10,0.05
2013-2-6,47,37,33,38,34,30,97,90,81,29.62,29.38,8,3,8,0.37
2013-2-7,36,33,30,33,30,19,98,87,59,29.74,29.32,14,6,14,0.11
2013-2-8,40,32,25,28,21,16,84,65,40,29.83,29.65,15,4,15,0.11
2013-2-9,34,28,22,27,22,16,88,77,51,29.91,29.77,9,3,9,0.05
2013-2-10,32,29,24,28,26,21,93,87,77,29.88,29.77,10,3,10,0.26
2013-2-11,32,26,23,27,23,20,95,88,61,29.94,29.80,14,4,14,0.02
2013-2-12,36,32,24,33,25,20,90,77,61,29.88,29.71,17,7,17,0.07
2013-2-13,43,38,35,36,32,26,90,80,52,30.00,29.77,10,4,10,0.01
2013-2-14,39,37,36,37,34,31,95,88,80,30.12,29.97,7,2,7,0.12
2013-2-15,47,40,36,40,36,33,96,87,62,30.09,29.94,7,1,7,0.03
2013-2-16,47,38,28,37,30,22,94,75,41,30.15,30.03,10,2,10,0.00
2013-2-17,38,35,27,31,28,22,90,78,60,30.18,30.09,8,2,8,0.00
2013-2-18,41,35,28,30,26,22,83,70,51,30.15,30.00,7,2,7,0.00
2013-2-19,42,34,26,32,27,20,94,77,44,30.06,29.77,12,4,12,0.07
2013-2-20,41,34,28,33,25,18,95,70,42,30.03,29.77,17,6,17,0.07
2013-2-21,38,32,24,25,18,10,80,58,31,30.03,29.91,10,3,10,0.00
2013-2-22,34,32,29,33,27,16,98,85,52,29.91,29.65,10,5,10,0.27
2013-2-23,42,37,33,40,36,32,98,96,92,29.83,29.59,13,6,13,0.03
2013-2-24,46,43,40,44,41,38,98,93,76,29.91,29.65,14,6,14,0.06
2013-2-25,50,46,42,44,42,38,97,85,66,30.15,29.85,10,5,10,0.06
2013-2-26,54,48,44,45,41,36,90,79,55,30.21,30.00,9,3,9,0.00
2013-2-27,50,44,40,44,38,32,92,78,51,30.30,30.00,7,2,7,0.04
2013-2-28,52,44,35,38,32,24,89,66,35,30.39,29.71,8,2,8,0.01
2013-3-1,41,37,31,39,31,22,98,80,52,30.18,29.91,18,5,18,0.00
2013-3-2,49,39,31,30,23,18,73,53,31,30.18,29.97,13,4,13,0.00
2013-3-3,50,38,25,30,22,18,76,54,32,30.15,29.94,18,5,18,0.00
2013-3-4,50,37,26,29,21,16,78,53,30,30.33,30.03,13,2,13,0.00
2013-3-5,54,39,24,29,21,13,78,51,20,30.36,30.12,14,4,14,0.00
2013-3-6,54,44,32,36,29,18,64,55,49,30.15,29.83,11,4,11,0.00
2013-3-7,54,50,45,44,41,36,80,71,60,29.83,29.65,12,4,12,0.01
2013-3-8,61,51,44,50,46,40,92,83,66,29.71,29.59,11,4,11,0.14
2013-3-9,56,51,46,51,47,44,97,89,79,29.62,29.56,7,2,7,0.01
2013-3-10,56,51,48,50,47,43,95,87,73,29.59,29.47,8,2,8,0.06
2013-3-11,59,48,38,48,40,31,97,75,50,29.59,29.47,14,3,14,0.01
2013-3-12,56,47,37,41,36,30,81,66,50,29.59,29.47,8,3,8,0.08
2013-3-13,51,48,45,46,42,39,90,81,71,29.50,29.44,9,2,9,0.01
2013-3-14,46,38,27,43,36,27,98,95,84,29.47,29.26,18,7,18,0.74
2013-3-15,31,28,24,30,26,24,98,95,90,29.94,29.26,22,10,22,0.05
2013-3-16,35,29,22,32,25,18,91,84,71,30.18,29.91,18,5,18,0.05
2013-3-17,37,28,17,27,20,13,89,71,55,30.18,30.00,15,6,15,0.00
2013-3-18,39,34,29,36,27,17,94,74,59,30.00,29.38,19,10,19,0.55
2013-3-19,51,42,34,40,34,25,96,74,48,29.74,29.29,25,8,25,0.02
2013-3-20,58,46,32,40,34,26,82,63,46,29.80,29.74,14,3,14,0.02
2013-3-21,48,43,36,41,38,29,91,83,71,29.83,29.74,26,9,26,0.36
2013-3-22,44,37,31,29,25,18,78,62,50,30.00,29.77,30,13,30,0.36
2013-3-23,33,30,26,22,19,15,73,63,57,30.09,29.97,14,4,14,0.00
2013-3-24,34,28,21,15,9,5,57,46,41,30.18,30.06,15,8,15,0.00
2013-3-25,35,30,28,23,14,7,77,52,41,30.09,29.71,21,9,21,0.37
2013-3-26,33,30,27,26,24,21,84,79,74,29.77,29.65,9,4,9,0.07
2013-3-27,33,30,27,29,26,23,87,83,77,29.94,29.74,8,3,8,0.04
2013-3-28,39,34,30,29,27,24,88,77,60,30.03,29.94,12,4,12,0.04
2013-3-29,38,35,34,36,32,28,94,87,78,29.97,29.74,12,4,12,0.45
2013-3-30,45,39,34,42,37,32,96,91,84,29.77,29.56,12,4,12,0.26
2013-3-31,50,42,33,49,40,28,98,94,81,29.65,29.35,20,7,20,0.13
2013-4-1,47,38,32,30,26,22,80,65,50,29.91,29.62,18,7,18,0.13
2013-4-2,44,38,32,39,28,22,88,67,54,29.88,29.62,18,8,18,0.47
2013-4-3,45,41,38,43,40,36,96,93,88,29.74,29.59,10,4,10,0.02
2013-4-4,45,40,37,38,36,32,95,84,73,29.88,29.71,16,4,16,0.02
2013-4-5,43,40,34,41,37,30,96,89,79,29.88,29.65,13,4,13,0.16
2013-4-6,49,44,37,41,38,30,96,82,66,30.00,29.71,11,5,11,0.17
2013-4-7,47,42,37,38,34,29,84,75,65,30.03,29.94,10,4,10,0.00
2013-4-8,52,43,37,32,29,26,72,58,47,29.94,29.83,10,3,10,0.00
2013-4-9,53,46,42,40,37,31,80,70,60,29.85,29.77,13,4,13,0.00
2013-4-10,58,49,44,46,42,34,89,75,55,29.91,29.77,11,4,11,0.01
2013-4-11,65,52,34,46,39,29,87,62,44,30.00,29.83,18,5,18,0.01
2013-4-12,66,57,49,48,43,40,79,60,44,29.85,29.77,22,8,22,0.14
2013-4-13,64,53,43,47,40,33,89,64,42,30.27,29.85,17,5,17,0.14
2013-4-14,65,53,37,42,35,27,82,52,35,30.36,30.27,14,4,14,0.00
2013-4-15,64,52,38,39,33,27,76,51,36,30.39,30.24,13,3,13,0.00
2013-4-16,68,54,37,40,33,26,70,47,32,30.33,30.21,12,3,12,0.00
2013-4-17,72,57,38,43,35,27,71,47,32,30.30,30.18,9,2,9,0.00
2013-4-18,75,60,43,45,38,32,73,46,31,30.21,30.06,10,2,10,0.00
2013-4-19,76,61,44,44,37,30,64,42,29,30.09,29.97,9,2,9,0.00
2013-4-20,76,62,46,50,41,30,76,48,33,30.09,30.00,14,3,14,0.00
2013-4-21,73,62,51,45,40,36,60,46,35,30.12,29.94,13,6,13,0.00
2013-4-22,75,61,46,44,38,29,57,43,33,29.97,29.88,14,5,14,0.00
2013-4-23,73,60,49,48,42,37,73,53,38,30.21,29.97,13,3,13,0.00
2013-4-24,77,63,47,49,41,34,71,47,31,30.33,30.18,17,3,17,0.00
2013-4-25,81,64,45,50,41,33,69,45,30,30.27,30.12,14,3,14,0.00
2013-4-26,84,67,48,51,43,36,72,45,27,30.15,29.71,15,4,15,0.00
2013-4-27,80,70,60,51,44,38,47,40,31,29.74,29.65,18,6,18,0.00
2013-4-28,79,68,58,52,47,42,70,49,35,29.97,29.71,16,5,16,0.02
2013-4-29,84,69,52,53,48,44,75,51,31,30.06,29.94,18,4,18,0.00
2013-4-30,86,74,56,56,50,44,73,45,32,30.09,29.94,13,3,13,0.00
2013-5-1,86,72,57,56,51,45,69,49,33,30.09,29.97,12,2,12,0.00
2013-5-2,82,70,60,59,54,48,71,57,42,30.09,29.83,24,6,24,0.04
2013-5-3,77,67,59,61,56,50,84,69,52,29.91,29.80,12,5,12,0.05
2013-5-4,74,63,53,54,50,47,83,64,45,30.09,29.88,15,5,15,0.00
2013-5-5,77,65,51,55,50,45,85,60,40,30.15,30.03,8,2,8,0.00
2013-5-6,76,66,62,60,52,45,84,62,44,30.12,30.00,20,6,20,0.70
2013-5-7,72,65,59,62,58,56,91,80,65,30.09,29.97,13,5,13,0.94
2013-5-8,76,66,59,60,55,51,89,70,46,30.09,29.97,9,2,9,0.01
2013-5-9,77,67,58,60,52,48,84,61,40,30.06,29.97,15,3,15,0.01
2013-5-10,79,67,53,54,48,44,79,53,34,30.03,29.83,24,5,24,0.00
2013-5-11,75,66,59,59,54,46,75,65,54,29.88,29.74,17,5,17,0.00
2013-5-12,67,60,55,54,50,45,83,69,57,29.83,29.74,18,8,18,0.00
2013-5-13,63,57,52,46,42,33,71,57,44,29.94,29.80,23,11,23,0.00
2013-5-14,65,57,50,44,41,35,69,56,46,29.94,29.85,13,5,13,0.00
2013-5-15,72,62,50,51,47,42,80,60,43,29.91,29.77,13,4,13,0.00
2013-5-16,77,65,50,52,48,43,82,58,38,29.85,29.65,16,6,16,0.00
2013-5-17,70,64,57,59,56,51,88,73,60,29.74,29.68,16,6,16,0.41
2013-5-18,74,64,54,55,51,46,92,66,42,29.97,29.71,16,5,16,0.41
2013-5-19,82,68,51,54,49,44,81,54,34,29.94,29.74,18,6,18,0.13
2013-5-20,71,63,54,53,48,43,78,59,41,29.97,29.80,14,4,14,0.13
2013-5-21,73,62,51,48,44,39,76,54,37,29.97,29.80,16,4,16,0.00
2013-5-22,67,60,54,51,47,40,77,64,49,29.83,29.68,20,4,20,0.07
2013-5-23,66,58,52,48,44,38,81,59,49,29.71,29.56,14,7,14,0.07
2013-5-24,68,58,51,45,41,38,65,53,43,29.74,29.59,12,4,12,0.00
2013-5-25,65,58,51,47,43,39,75,59,43,29.77,29.68,15,4,15,0.00
2013-5-26,64,55,51,48,44,36,78,65,49,29.77,29.68,14,4,14,0.00
2013-5-27,61,53,45,47,40,35,83,63,51,29.83,29.77,15,4,15,0.00
2013-5-28,69,58,48,52,47,39,83,66,46,29.83,29.68,14,4,14,0.00
2013-5-29,78,64,50,56,51,45,91,66,43,29.71,29.53,14,4,14,0.00
2013-5-30,66,60,53,61,54,49,95,82,64,29.56,29.47,10,3,10,0.41
2013-5-31,67,57,50,52,48,44,95,74,49,29.62,29.53,26,5,26,0.01
2013-6-1,67,56,47,52,48,42,92,75,53,29.74,29.62,11,3,11,0.01
2013-6-2,68,59,49,55,50,44,92,75,57,29.85,29.68,12,3,12,0.03
2013-6-3,65,58,53,54,50,46,86,75,63,29.94,29.85,23,10,23,0.03
2013-6-4,68,59,53,59,53,47,86,81,67,29.94,29.85,15,6,15,0.18
2013-6-5,69,60,54,60,56,51,94,87,71,30.06,29.91,8,2,8,0.36
2013-6-6,70,62,54,64,58,53,98,89,74,30.09,30.03,10,2,10,0.14
2013-6-7,78,67,58,64,59,56,98,77,49,30.06,29.97,10,4,10,0.14
2013-6-8,80,70,59,60,57,52,85,65,45,30.03,29.85,12,3,12,0.00
2013-6-9,83,71,58,63,57,52,90,63,41,29.91,29.77,17,4,17,0.00
2013-6-10,82,69,60,60,57,53,86,67,43,29.85,29.71,15,4,15,0.11
2013-6-11,73,64,57,61,56,49,93,78,59,29.88,29.74,14,4,14,0.11
2013-6-12,77,66,54,56,52,48,86,64,45,30.06,29.85,15,6,15,0.00
2013-6-13,82,70,58,54,51,48,70,52,35,30.12,29.97,13,4,13,0.00
2013-6-14,85,72,57,59,54,50,81,55,38,30.03,29.94,12,3,12,0.00
2013-6-15,86,74,61,63,57,53,81,57,37,30.03,29.91,9,3,9,0.00
2013-6-16,89,76,62,64,59,54,82,58,39,30.03,29.97,9,2,9,0.00
2013-6-17,92,79,65,66,61,58,83,57,36,30.06,29.97,10,2,10,0.00
2013-6-18,94,82,67,68,62,58,80,53,33,30.06,29.94,13,3,13,0.00
2013-6-19,97,84,68,68,62,57,77,50,30,30.00,29.91,13,3,13,0.00
2013-6-20,97,84,72,71,65,61,73,54,34,30.00,29.85,12,6,12,0.00
2013-6-21,95,84,72,71,64,59,77,53,34,29.94,29.88,13,3,13,0.00
2013-6-22,94,81,70,70,63,59,79,57,32,29.94,29.83,14,4,14,0.03
2013-6-23,84,75,67,69,64,61,90,71,47,29.91,29.80,15,4,15,0.17
2013-6-24,81,68,58,64,59,52,88,74,53,29.85,29.77,20,6,20,0.07
2013-6-25,61,58,56,56,54,50,89,84,80,30.03,29.83,17,7,17,0.02
2013-6-26,66,59,54,51,48,46,81,68,56,30.21,30.00,18,10,18,0.02
2013-6-27,69,60,53,56,50,46,83,70,55,30.24,30.09,14,6,14,0.02
2013-6-28,73,63,56,57,54,50,88,74,50,30.09,30.00,12,3,12,0.33
2013-6-29,77,65,56,58,53,48,93,68,39,30.03,29.91,13,3,13,0.33
2013-6-30,76,65,55,55,50,43,80,59,42,30.03,29.91,23,7,23,0.00
2013-7-1,76,64,50,50,44,39,72,50,36,30.09,30.00,14,5,14,0.00
2013-7-2,81,68,50,52,47,43,77,50,33,30.09,29.97,8,2,8,0.00
2013-7-3,85,71,54,54,50,44,73,49,33,30.03,29.91,13,3,13,0.00
2013-7-4,89,75,58,57,52,46,73,47,30,30.03,29.94,10,4,10,0.00
2013-7-5,85,75,65,58,56,52,67,52,40,30.15,30.00,14,5,14,0.00
2013-7-6,89,77,66,64,59,54,75,55,38,30.21,30.09,17,6,17,0.00
2013-7-7,88,77,67,62,58,52,72,52,37,30.24,30.12,17,6,17,0.00
2013-7-8,86,75,66,58,54,49,64,49,34,30.30,30.15,12,4,12,0.00
2013-7-9,87,78,65,57,52,47,60,42,35,30.18,29.97,12,5,12,0.00
2013-7-10,89,80,62,58,54,49,69,43,33,29.97,29.80,12,4,12,0.00
2013-7-11,80,71,60,59,53,44,76,54,41,29.94,29.77,22,7,22,0.00
2013-7-12,77,70,60,52,49,45,66,47,38,30.06,30.00,18,8,18,0.00
2013-7-13,78,72,62,53,49,43,68,45,39,30.03,30.00,15,7,15,0.00
2013-7-14,84,77,67,54,50,46,62,39,33,30.03,29.94,17,8,17,0.00
2013-7-15,81,73,60,57,51,42,68,47,35,30.09,29.94,20,7,20,0.00
2013-7-16,83,74,57,52,49,44,66,42,34,30.18,30.12,17,4,17,0.00
2013-7-17,86,73,57,56,51,46,71,48,33,30.21,30.09,12,3,12,0.00
2013-7-18,86,79,60,59,55,51,72,46,35,30.15,30.06,9,3,9,0.00
2013-7-19,90,76,67,62,57,52,69,52,36,30.09,29.91,12,3,12,0.00
2013-7-20,88,76,62,59,55,46,76,49,33,30.06,29.91,13,5,13,0.00
2013-7-21,84,73,64,52,47,42,49,40,33,30.12,30.00,10,4,10,0.00
2013-7-22,88,78,57,55,52,45,68,42,31,30.12,29.88,11,3,11,0.00
2013-7-23,92,77,60,58,52,45,71,45,28,29.94,29.88,15,3,15,0.00
2013-7-24,93,78,63,56,48,29,63,38,12,30.00,29.88,16,4,16,0.00
2013-7-25,85,76,62,55,51,40,57,41,33,30.03,29.94,8,3,8,0.00
2013-7-26,92,78,63,60,55,50,73,48,31,30.03,29.91,14,3,14,0.00
2013-7-27,96,81,65,63,58,53,69,47,31,30.00,29.88,10,3,10,0.00
2013-7-28,99,90,72,66,60,53,71,38,28,30.00,29.91,17,5,17,0.00
2013-7-29,101,91,71,63,60,53,57,36,29,29.94,29.80,14,5,14,0.00
2013-7-30,81,76,70,61,56,50,70,49,40,30.03,29.91,25,12,25,0.00
2013-7-31,88,81,69,57,54,50,64,40,33,30.09,30.00,15,7,15,0.00
2013-8-1,90,81,66,59,56,52,65,43,33,30.12,30.06,17,4,17,0.00
2013-8-2,95,84,64,61,57,51,72,41,29,30.15,30.00,12,3,12,0.00
2013-8-3,100,90,68,63,59,52,71,36,23,30.06,29.88,13,4,13,0.00
2013-8-4,95,87,73,60,57,51,56,37,29,30.12,30.00,13,5,13,0.00
2013-8-5,97,87,71,61,58,51,61,39,28,30.12,29.97,11,3,11,0.00
2013-8-6,99,87,68,64,58,52,67,40,28,30.06,29.91,10,3,10,0.00
2013-8-7,100,88,70,63,57,50,59,37,25,30.00,29.91,12,4,12,0.00
2013-8-8,102,90,69,62,57,51,54,35,21,30.00,29.91,12,4,12,0.00
2013-8-9,101,90,70,62,58,52,57,35,27,29.97,29.80,10,4,10,0.00
2013-8-10,78,74,69,62,58,52,69,57,48,30.00,29.91,19,11,19,0.00
2013-8-11,88,79,67,55,50,42,57,36,24,30.03,29.94,14,5,14,0.00
2013-8-12,90,80,60,56,52,46,63,39,29,30.06,29.94,12,4,12,0.00
2013-8-13,90,80,62,58,53,48,63,40,32,30.03,29.91,18,7,18,0.00
2013-8-14,77,72,66,57,49,44,70,46,36,30.18,30.06,13,5,13,0.02
2013-8-15,79,71,55,55,49,42,84,47,35,30.24,30.15,10,3,10,0.00
2013-8-16,85,77,62,51,48,40,57,37,31,30.24,30.09,10,4,10,0.00
2013-8-17,88,78,56,52,48,40,68,36,25,30.12,30.00,9,3,9,0.00
2013-8-18,92,82,56,54,49,43,61,33,22,30.12,29.97,10,3,10,0.00
2013-8-19,95,84,60,56,50,44,57,33,22,30.03,29.88,12,4,12,0.00
2013-8-20,81,74,68,60,58,55,68,57,48,30.12,30.00,23,9,23,0.00
2013-8-21,80,72,64,62,58,53,79,62,49,30.18,30.12,10,4,10,0.00
2013-8-22,83,74,58,57,54,50,78,51,39,30.15,30.03,10,3,10,0.00
2013-8-23,85,76,59,54,51,48,66,43,34,30.09,29.97,9,4,9,0.00
2013-8-24,80,72,60,53,49,44,60,45,38,30.00,29.88,12,5,12,0.00
2013-8-25,80,74,65,57,53,50,74,49,37,29.91,29.80,12,6,12,0.00
2013-8-26,70,67,61,65,62,56,92,84,73,29.94,29.88,13,4,13,0.65
2013-8-27,75,70,62,62,60,58,93,72,60,30.00,29.88,10,4,10,0.00
2013-8-28,73,67,61,63,59,55,93,76,63,29.94,29.85,14,4,14,0.52
2013-8-29,76,67,61,63,58,53,93,74,46,30.12,29.68,12,3,12,0.12
2013-8-30,75,68,59,60,55,51,91,63,47,30.15,30.09,8,2,8,0.00
2013-8-31,81,67,54,59,52,46,91,62,37,30.15,30.03,10,2,10,0.00
2013-9-1,76,70,59,59,53,45,78,55,47,30.18,30.06,18,7,18,0.00
2013-9-2,72,66,51,48,45,40,77,48,39,30.24,30.12,21,7,21,0.00
2013-9-3,75,68,62,58,52,45,68,57,45,30.24,30.06,26,12,26,0.00
2013-9-4,77,69,50,53,47,40,86,48,35,30.30,30.21,13,3,13,0.00
2013-9-5,79,68,50,52,47,42,76,49,35,30.21,30.03,10,3,10,0.00
2013-9-6,78,69,51,51,47,41,70,46,36,30.09,30.03,10,3,10,0.00
2013-9-7,80,71,53,50,46,39,70,42,33,30.18,30.12,8,2,8,0.00
2013-9-8,82,73,57,51,47,41,72,41,33,30.24,30.06,10,4,10,0.00
2013-9-9,66,61,57,56,52,42,87,72,50,30.12,30.03,8,2,8,0.25
2013-9-10,71,62,53,62,57,50,96,84,68,30.15,29.97,10,4,10,0.25
2013-9-11,67,60,55,59,54,46,95,79,58,30.00,29.91,14,5,14,0.03
2013-9-12,69,63,54,55,51,49,89,67,49,30.00,29.91,10,3,10,0.02
2013-9-13,68,61,55,53,49,46,78,65,50,30.03,30.00,15,7,15,0.12
2013-9-14,59,56,54,56,54,48,95,92,75,30.03,29.91,15,6,15,0.25
2013-9-15,74,66,48,61,57,47,100,74,55,29.97,29.74,10,2,10,0.00
2013-9-16,78,68,57,62,59,54,92,73,54,29.77,29.59,8,2,8,0.00
2013-9-17,60,55,50,59,48,41,95,80,71,29.69,29.46,32,14,32,0.03
2013-9-18,62,57,45,51,47,43,95,70,54,29.69,29.57,16,5,16,0.00
2013-9-19,63,59,52,52,46,41,83,62,45,29.93,29.67,23,11,23,0.00
2013-9-20,67,61,46,52,48,45,94,64,49,30.05,29.98,16,7,16,0.01
2013-9-21,70,62,54,53,52,50,91,70,53,30.24,30.08,21,9,21,0.00
2013-9-22,69,59,42,52,48,41,99,68,47,30.31,30.20,9,3,9,0.01
2013-9-23,69,63,53,56,53,49,85,70,61,30.10,29.96,29,13,29,0.01
2013-9-24,69,64,56,55,52,50,82,67,57,29.96,29.92,23,9,23,0.00
2013-9-25,69,63,50,53,52,47,98,68,56,30.00,29.92,11,5,11,0.00
2013-9-26,75,62,51,60,55,47,88,77,56,29.92,29.81,22,6,22,0.00
2013-9-27,60,54,45,48,46,42,98,75,62,30.09,30.00,13,3,13,0.00
2013-9-28,65,56,39,49,44,39,99,65,43,30.03,29.93,8,2,8,0.01
2013-9-29,64,54,44,44,41,39,83,64,47,30.01,29.92,16,7,16,0.00
2013-9-30,60,57,51,44,42,39,65,57,52,30.03,29.73,21,11,21,0.05
2013-10-1,63,56,50,44,42,39,72,58,45,29.95,29.51,15,6,15,0.07
2013-10-2,56,50,40,41,34,24,74,56,31,30.33,29.95,14,6,14,0.01
2013-10-3,55,44,33,28,24,20,72,49,25,30.50,30.33,17,5,17,0.00
2013-10-4,55,40,27,31,25,20,85,60,30,30.52,30.41,11,2,11,0.01
2013-10-5,60,42,26,33,28,21,86,60,28,30.41,30.21,16,4,16,0.00
2013-10-6,66,49,34,39,34,28,80,58,29,30.30,30.22,8,2,8,0.04
2013-10-7,69,58,46,41,37,31,74,49,26,30.36,30.30,8,3,8,0.04
2013-10-8,70,58,40,43,38,32,90,52,26,30.34,30.25,12,4,12,0.01
2013-10-9,63,57,48,51,47,40,91,69,58,30.19,29.80,11,4,11,0.11
2013-10-10,57,54,52,54,52,51,97,93,86,30.02,29.88,9,4,9,0.07
2013-10-11,72,65,53,58,56,52,97,73,58,30.06,29.95,18,8,18,0.01
2013-10-12,76,66,54,61,58,49,98,77,57,30.15,30.06,13,5,13,0.07
2013-10-13,69,60,50,61,55,47,98,86,62,30.19,30.10,10,2,10,0.01
2013-10-14,69,60,44,56,52,43,98,76,63,30.19,30.09,8,2,8,0.01
2013-10-15,65,58,46,58,52,44,98,82,70,30.14,29.84,13,4,13,0.01
2013-10-16,52,50,48,51,48,47,98,94,83,29.74,29.60,27,12,27,0.61
2013-10-17,63,54,49,50,46,26,93,77,51,30.15,29.74,22,9,22,0.61
2013-10-18,62,57,49,49,46,43,95,67,53,30.10,29.94,26,11,26,0.00
2013-10-19,58,50,40,45,42,39,98,75,56,30.28,30.19,12,5,12,0.03
2013-10-20,70,62,44,55,51,42,95,70,56,30.22,30.11,12,5,12,0.00
2013-10-21,71,61,50,58,54,49,97,79,59,30.15,30.08,8,2,8,0.00
2013-10-22,68,62,49,60,57,48,98,83,72,30.34,30.09,8,4,8,0.02
2013-10-23,77,70,62,59,57,55,82,64,48,30.05,29.99,20,8,20,0.00
2013-10-24,74,65,54,59,56,52,93,76,57,30.17,30.09,8,2,8,0.00
2013-10-25,75,65,51,61,56,45,98,76,56,30.19,29.85,8,3,8,0.19
2013-10-26,73,62,50,59,55,49,98,78,61,30.15,30.11,11,2,11,0.01
2013-10-27,73,62,48,59,55,47,98,79,58,30.09,29.93,13,3,13,0.00
2013-10-28,71,65,54,60,57,52,95,76,65,30.05,29.91,16,6,16,0.02
2013-10-29,70,61,50,58,54,48,98,77,63,30.06,29.91,9,2,8,0.04
2013-10-30,63,57,47,51,46,40,86,67,50,30.30,29.96,58,6,58,0.13
2013-10-31,62,50,38,44,39,36,96,67,38,30.37,30.29,9,2,9,0.02
2013-11-1,60,55,50,51,48,41,84,75,69,30.23,30.12,8,3,8,0.03
2013-11-2,64,58,48,55,52,47,98,81,66,30.01,29.88,18,6,18,0.00
2013-11-3,65,57,49,59,52,45,98,85,72,29.87,29.64,20,9,20,0.23
2013-11-4,54,51,46,50,46,42,95,83,63,29.88,29.52,13,5,13,0.01
2013-11-5,54,50,46,53,48,43,97,94,84,29.48,29.44,13,6,13,0.48
2013-11-6,56,49,38,46,41,36,94,76,55,29.81,29.56,17,6,17,0.00
2013-11-7,61,53,47,49,46,42,90,78,64,30.03,29.91,17,4,17,0.01
2013-11-8,61,53,41,53,48,41,98,87,73,30.03,29.98,6,2,6,0.01
2013-11-9,61,55,50,51,49,47,92,80,66,29.93,29.85,18,6,18,0.07
2013-11-10,56,51,45,47,45,42,94,81,67,29.81,29.73,8,3,8,0.03
2013-11-11,51,50,49,46,44,40,89,80,66,30.25,29.88,14,6,14,0.11
2013-11-12,57,52,46,44,42,38,85,71,59,30.32,30.26,11,3,11,0.01
2013-11-13,51,48,46,48,44,40,92,84,79,30.28,30.24,13,4,13,0.01
2013-11-14,48,46,44,38,36,35,79,69,65,30.23,30.12,8,4,8,0.00
2013-11-15,50,46,42,42,39,36,87,76,70,30.38,30.17,12,4,12,0.01
2013-11-16,56,47,38,46,42,36,95,83,68,30.40,30.32,6,2,6,0.00
2013-11-17,47,42,33,44,40,32,98,93,88,30.30,30.22,4,1,4,0.08
2013-11-18,43,42,40,42,41,39,98,97,96,30.18,30.07,11,6,11,0.00
2013-11-19,46,42,38,42,40,37,97,91,84,29.99,29.75,18,9,18,0.01
2013-11-20,52,49,41,48,46,39,95,87,77,29.68,29.55,13,6,13,0.21
2013-11-21,47,44,36,46,42,34,98,94,91,29.67,29.57,15,5,15,0.11
2013-11-22,50,47,46,48,46,44,96,94,90,29.74,29.61,13,4,13,0.11
2013-11-23,52,49,45,47,45,42,90,85,80,29.76,29.70,20,9,20,0.05
2013-11-24,47,46,44,46,44,40,96,93,88,29.72,29.65,15,3,15,0.34
2013-11-25,43,37,35,40,30,24,91,74,59,30.02,29.65,28,12,28,0.46
2013-11-26,39,36,34,28,26,21,73,65,57,30.19,30.07,58,6,58,0.00
2013-11-27,41,33,24,22,20,17,76,59,43,30.41,30.24,11,3,11,0.00
2013-11-28,39,30,20,30,21,15,85,71,46,30.41,30.21,21,5,21,0.00
2013-11-29,45,40,36,33,30,28,76,69,60,30.20,30.06,20,6,20,0.00
2013-11-30,40,36,29,31,28,24,83,74,69,30.25,30.01,9,2,9,0.00
2013-12-1,46,37,23,35,29,18,92,73,54,30.32,30.26,14,3,14,0.00
2013-12-2,50,38,29,36,29,24,88,71,53,30.58,30.28,9,3,9,0.00
2013-12-3,41,32,24,40,22,17,96,66,52,30.59,30.03,8,2,8,0.00
2013-12-4,28,26,22,24,22,18,89,87,85,30.35,30.17,10,3,10,0.01
2013-12-5,44,38,32,32,29,25,84,69,55,30.25,29.93,17,6,17,0.00
2013-12-6,43,39,36,31,25,20,78,58,44,29.87,29.78,31,16,31,0.28
2013-12-7,40,36,32,26,22,18,71,57,45,30.19,29.86,36,16,36,0.00
2013-12-8,42,40,36,35,33,30,84,77,70,30.33,30.20,15,5,15,0.00
2013-12-9,46,45,39,39,36,31,75,72,64,30.24,30.12,30,15,30,0.00
2013-12-10,38,34,25,32,22,17,78,64,53,30.72,30.40,14,4,14,0.00
2013-12-11,36,31,27,23,21,18,74,65,54,30.70,30.58,6,2,6,0.00
2013-12-12,36,34,32,30,28,25,85,79,73,30.53,30.43,8,3,8,0.00
2013-12-13,34,33,32,29,28,27,84,82,80,30.35,30.30,6,2,6,0.00
2013-12-14,33,31,29,28,27,26,87,83,79,30.45,30.31,8,3,8,0.00
2013-12-15,38,34,32,34,30,29,90,86,81,30.56,30.46,8,4,8,0.00
2013-12-16,33,33,32,31,30,30,93,90,88,30.66,30.56,8,3,8,0.00
2013-12-17,33,32,30,31,29,28,93,89,85,30.64,30.52,10,5,10,0.00
2013-12-18,29,29,28,26,26,24,89,88,84,30.45,30.34,8,4,8,0.00
2013-12-19,30,30,28,28,27,24,91,88,84,30.21,30.15,11,6,11,0.00
2013-12-20,30,29,28,28,26,24,94,90,85,30.46,30.26,10,5,10,0.00
2013-12-21,43,34,28,35,30,24,93,84,68,30.62,30.54,12,4,12,0.00
2013-12-22,34,32,30,31,30,28,94,91,89,30.48,30.33,12,6,12,0.00
2013-12-23,41,38,35,37,35,32,93,88,85,30.32,30.27,6,2,6,0.00
2013-12-24,43,38,33,38,35,30,99,90,82,30.28,30.01,11,5,11,0.00
2013-12-25,53,45,35,36,32,27,73,62,48,29.90,29.76,18,8,18,0.00
2013-12-26,47,43,35,43,38,31,88,83,78,29.69,29.58,13,6,13,0.06
2013-12-27,53,45,36,44,40,33,91,81,67,30.00,29.77,9,3,9,0.13
2013-12-28,48,39,34,44,36,32,97,91,84,30.04,29.96,6,2,6,0.01
2013-12-29,44,38,34,43,37,32,99,94,89,30.19,29.99,5,1,5,0.00
2013-12-30,46,43,37,41,39,32,92,84,76,30.35,30.28,8,3,8,0.01
2013-12-31,39,36,34,38,34,30,96,92,84,30.30,30.22,10,5,10,0.00
2014-1-1,39,36,33,36,33,30,92,88,84,30.22,30.13,10,5,10,0.00
2014-1-2,44,39,34,36,34,30,86,81,73,30.04,29.95,11,5,11,0.00